SCP
0 0 0 0 0 0 0 0 0 0 0 0 0 0 1 1 1 0 1 1 1 1 1 1 1 1 1 1 1 1 1 1 0 0 0 1 1 1 1 1 1 1 1 1
0 0 0 0 0 0 0 0 0 0 0 0 0 0 0 0 0 0 0 0 0 1 1 1 1 1 1 1 1 1 1 1 0 0 0 0 1 1 1 1 1 1 1 1
0 0 0 0 0 0 0 0 0 0 0 0 0 0 0 0 0 0 0 0 0 0 1 1 0 0 1 1 1 1 1 1 0 0 0 0 0 0 1 1 1 1 1 1
0 0 0 0 0 0 0 0 0 0 0 0 0 0 0 0 0 0 0 0 0 0 0 0 0 0 0 1 0 1 1 1 1 1 0 0 0 0 1 1 1 1 1 1
0 0 0 0 0 0 0 0 0 0 0 0 0 0 0 0 0 0 0 0 0 0 0 0 0 0 0 0 0 0 1 1 1 1 1 0 0 0 1 1 1 1 1 1
0 0 0 0 0 0 0 0 0 0 0 0 0 0 0 0 0 0 0 0 0 0 0 0 0 0 0 0 0 0 0 1 1 1 1 1 0 0 1 1 0 0 1 1
0 0 0 0 0 0 0 0 0 0 0 0 0 0 0 0 0 0 0 0 0 0 0 0 0 0 0 0 0 0 0 0 1 1 1 1 1 1 0 0 0 0 0 0
0 0 0 0 0 0 0 0 0 0 0 0 0 0 0 0 0 0 0 0 0 0 0 0 0 0 0 0 0 0 0 0 1 1 1 1 1 1 1 0 0 0 0 0
0 0 0 0 0 0 0 0 0 0 0 0 0 0 0 0 0 0 0 0 0 0 0 0 0 0 0 0 0 0 0 0 1 1 1 1 1 1 1 1 0 0 0 0
0 0 0 0 0 0 0 0 0 0 0 0 0 0 0 0 0 0 0 0 0 0 0 0 0 0 0 0 0 0 0 0 0 0 1 1 1 1 1 1 1 0 0 0
0 0 0 0 0 0 0 0 0 0 0 0 0 0 0 0 0 0 0 0 0 0 0 0 0 0 0 0 0 0 0 0 0 0 0 0 0 0 1 1 1 0 0 0
0 0 0 0 0 0 0 0 0 0 0 0 0 0 0 0 0 0 0 0 0 0 0 0 0 0 0 0 0 0 0 0 0 0 0 0 0 0 0 0 0 0 0 0
0 0 0 0 0 0 0 0 0 0 0 0 0 0 0 0 0 0 0 0 0 0 0 0 0 0 0 0 0 0 0 0 0 0 0 0 0 0 0 0 0 0 0 0
0 0 0 0 0 0 0 0 0 0 0 0 0 0 0 0 0 0 0 0 0 0 0 0 0 0 0 0 0 0 0 0 0 0 0 0 0 0 0 0 0 0 0 0
0 0 0 0 0 0 0 0 0 0 0 0 0 0 0 0 0 0 0 0 0 0 0 0 0 0 0 0 0 0 0 0 0 0 0 0 0 0 0 0 0 0 0 0
0 0 0 0 0 0 0 0 0 0 0 0 0 0 0 0 0 0 0 0 0 0 0 0 0 0 0 0 0 0 1 0 0 0 0 0 0 0 0 0 0 0 0 0
0 0 0 0 0 0 0 0 0 0 0 0 0 0 0 0 0 0 0 0 0 0 0 0 0 0 0 0 1 1 1 0 0 0 0 0 0 0 0 0 0 0 0 0
0 0 0 0 0 0 0 0 0 0 0 0 0 0 0 0 0 0 0 0 0 0 0 0 0 0 1 1 1 1 0 0 0 0 0 0 0 0 0 0 0 0 0 0
0 0 0 0 0 0 0 0 0 0 0 0 0 0 0 0 0 0 0 0 0 0 0 0 0 1 1 1 1 1 0 0 0 0 0 0 0 0 0 0 0 0 0 0
0 0 0 0 0 0 0 0 0 0 0 0 0 0 0 0 0 0 0 0 0 0 0 0 0 0 0 0 0 0 0 0 0 0 0 0 0 0 0 0 0 0 0 0
0 0 0 0 0 0 0 0 0 0 0 0 0 0 0 0 0 0 0 0 0 0 0 0 0 0 0 0 0 0 0 0 0 0 0 0 0 0 0 0 0 0 0 0
0 0 0 0 0 0 0 0 0 0 0 0 0 0 0 0 0 0 0 0 0 0 0 0 0 0 0 0 0 0 0 0 0 0 0 0 0 0 0 0 0 0 0 0
0 0 0 0 0 0 0 0 0 0 0 0 0 0 0 0 0 0 0 0 0 0 0 0 0 0 0 0 0 0 0 0 0 0 0 0 0 0 0 0 0 0 0 0
0 0 0 0 0 0 0 0 0 0 0 0 0 0 0 0 0 0 0 0 0 0 0 0 0 0 0 0 0 0 0 0 0 0 0 0 0 0 0 0 0 0 0 0
0 0 0 0 0 0 0 0 0 0 0 0 0 0 0 0 0 0 0 0 0 0 0 0 0 0 0 0 0 0 0 0 0 0 0 0 0 0 0 0 0 0 0 0
0 0 0 0 0 0 0 0 0 0 0 0 0 0 0 0 0 0 0 0 0 0 0 0 0 0 0 0 0 0 0 0 0 0 0 0 0 0 0 0 0 0 0 0
0 0 0 0 0 0 0 0 0 0 0 0 0 0 0 0 0 0 0 0 0 0 0 0 0 0 0 0 0 0 0 0 0 0 0 0 0 0 0 0 0 0 0 0
Wind_Speed
8 7 8 9 9 8 9 10 9 7 6 4 1 1 2 2 2 1 1 1 1 0 0 1 1 0 1 1 1 1 1 0 1 1 1 1 1 1 0 1 1 1 1 0
9 8 8 10 10 10 9 9 9 8 6 3 1 0 1 2 1 1 0 1 1 1 1 1 0 1 1 0 0 1 1 0 1 1 1 1 1 1 1 1 1 1 1 1
8 7 8 9 7 7 7 6 6 7 4 2 1 1 0 1 2 0 1 1 1 2 2 1 2 0 0 1 0 0 0 1 1 1 2 2 2 1 1 1 0 0 0 0
6 7 8 2 2 2 4 5 4 3 1 2 2 2 2 1 1 1 2 2 2 2 2 2 1 1 1 1 0 1 1 1 1 1 1 2 2 1 1 1 1 1 1 1
5 7 8 3 1 2 3 5 3 2 2 2 2 2 1 2 2 1 2 2 2 2 2 1 1 1 1 0 0 0 0 1 0 0 1 1 2 2 2 1 1 1 1 1
6 6 6 0 3 4 4 3 2 2 2 1 2 3 1 2 2 2 2 2 3 3 2 1 1 1 1 1 1 1 1 1 1 1 1 2 2 2 2 2 2 2 2 2
8 8 4 1 1 2 3 2 4 4 3 3 3 2 1 2 2 2 1 2 2 3 2 2 2 2 2 1 1 1 1 1 1 1 2 2 2 2 2 2 2 3 3 2
6 7 4 2 1 2 2 3 3 4 4 3 3 3 1 2 2 2 2 2 3 3 2 2 2 2 2 1 2 2 1 1 1 2 2 2 1 1 2 2 2 3 3 2
3 2 1 1 3 3 3 3 4 4 4 3 3 3 2 2 1 2 2 2 3 2 2 2 2 2 2 2 2 2 2 1 1 2 1 1 1 2 2 1 2 2 2 2
5 3 2 3 3 3 3 4 4 4 4 4 4 4 3 3 2 1 2 2 2 2 2 2 2 2 1 1 2 2 2 2 2 2 2 1 1 1 1 2 2 2 2 2
7 5 4 4 3 4 4 4 4 4 4 4 4 4 3 3 3 2 2 2 2 2 2 2 2 2 2 1 2 2 2 2 2 1 1 1 1 1 2 2 2 3 3 2
5 5 4 3 3 4 4 5 4 4 5 4 4 4 4 3 3 2 2 2 3 3 2 2 2 2 1 1 2 3 3 2 1 1 1 1 1 2 3 3 4 4 5 5
5 5 4 4 4 4 4 5 5 4 4 4 4 4 4 3 3 3 3 3 3 3 3 3 2 2 2 1 2 2 3 2 2 1 2 2 2 2 2 3 4 5 5 6
3 3 5 5 5 4 5 5 5 4 4 4 3 3 3 3 3 4 4 4 3 3 3 3 2 3 2 1 2 3 3 3 3 2 2 2 2 2 2 3 3 3 4 5
4 4 4 5 5 5 4 4 4 4 3 3 3 3 3 4 4 4 4 3 3 3 3 3 3 3 1 1 2 3 2 2 2 2 2 3 3 3 3 3 3 3 2 3
4 4 4 4 5 5 5 5 5 4 4 4 4 3 3 3 4 4 4 3 3 4 3 3 3 2 1 2 2 2 2 4 4 3 3 3 3 3 3 3 3 3 3 3
3 3 4 5 5 5 5 5 4 4 5 5 4 4 3 3 4 4 3 3 3 3 3 2 2 2 2 2 2 2 2 3 5 4 3 3 3 3 3 3 3 3 3 3
3 3 3 4 4 4 5 5 5 4 4 4 4 3 3 3 3 3 3 3 3 3 3 2 2 2 2 2 2 2 2 2 3 3 3 3 3 3 3 3 4 4 3 3
2 2 3 3 4 4 4 5 4 4 4 3 3 3 3 3 3 3 3 3 3 3 3 2 4 3 2 2 3 2 2 2 2 2 3 4 4 3 3 3 3 3 3 3
2 2 3 4 4 4 4 4 4 3 3 2 3 3 3 3 3 3 3 3 3 2 2 3 3 2 2 2 4 2 2 2 3 3 3 3 3 3 3 3 3 3 3 3
2 2 3 3 4 4 4 4 3 3 3 2 2 3 3 3 3 2 3 3 2 2 2 4 2 2 2 3 3 2 2 2 2 3 3 3 3 3 3 3 3 3 3 3
2 2 3 4 4 4 4 3 3 3 3 2 3 3 3 3 2 2 3 2 2 3 2 2 2 3 4 4 2 2 2 2 2 2 2 3 3 3 3 3 3 3 3 3
2 2 3 4 4 4 4 3 3 3 3 3 3 3 3 2 2 2 2 2 1 3 3 2 3 5 5 2 2 2 2 2 3 3 3 3 3 3 3 4 3 3 3 3
2 3 3 4 4 4 4 4 3 3 3 3 3 2 2 2 2 2 2 2 3 4 3 2 4 5 5 2 2 2 2 2 3 3 3 3 3 4 4 4 4 3 3 4
3 3 4 4 4 3 3 3 3 3 3 2 3 2 2 1 2 2 2 1 2 3 2 3 4 5 3 2 2 2 2 3 3 3 3 3 4 4 4 4 4 4 3 3
3 3 3 3 3 3 2 2 2 2 2 2 2 2 2 1 1 2 1 2 2 3 2 2 2 3 2 2 2 3 3 3 4 4 3 3 4 4 4 4 5 4 4 3
3 3 2 2 2 2 2 3 2 2 2 2 2 2 2 2 2 2 2 2 2 1 1 2 2 2 3 3 3 3 3 3 3 3 3 3 3 4 4 4 4 4 3 3
Wind_Direction
283 294 298 290 278 266 263 268 273 285 290 282 270 192 139 122 107 94 92 95 86 307 202 142 110 85 60 64 100 115 106 322 331 339 341 341 346 319 350 341 324 328 351 66
281 275 277 279 273 265 261 263 268 274 280 304 314 170 133 122 117 75 353 333 346 329 330 339 189 169 127 108 83 108 137 97 15 351 357 9 7 350 352 352 341 354 335 15
279 284 281 270 264 258 263 267 276 279 289 325 326 346 339 131 133 118 356 8 1 348 330 332 323 2 96 146 41 128 127 54 34 19 3 359 0 354 333 290 290 317 303 85
279 281 262 261 12 336 292 287 291 296 329 10 13 9 17 77 83 40 12 348 345 335 333 344 343 355 358 24 8 345 32 14 34 38 4 358 352 335 318 298 278 261 247 240
261 270 272 258 296 333 308 297 321 322 354 28 25 347 343 43 52 41 21 359 340 336 329 348 354 346 330 327 288 267 247 300 331 339 317 304 301 297 306 305 287 265 241 235
254 261 266 102 65 19 312 276 48 355 333 334 309 287 303 37 25 24 13 359 342 335 328 342 348 339 314 275 271 279 269 274 280 267 262 265 274 285 289 282 271 266 251 240
252 258 263 74 52 314 281 1 27 11 1 329 313 325 11 8 14 9 350 350 340 328 331 345 347 330 306 325 323 319 335 323 320 300 275 266 267 285 282 271 266 267 262 254
242 249 245 89 345 333 6 6 3 6 3 349 347 348 358 8 3 352 346 342 339 329 334 346 338 318 309 316 335 338 339 320 317 308 301 310 292 284 288 275 259 264 267 266
265 261 0 332 358 357 347 340 351 350 347 343 327 323 323 313 314 326 320 324 329 317 316 313 314 306 306 329 341 323 300 293 294 303 301 304 297 291 294 282 259 261 258 260
277 255 278 303 313 319 331 319 321 323 321 316 309 305 304 300 283 278 287 294 309 300 296 302 307 304 312 327 322 313 294 282 282 284 299 305 286 274 278 273 271 268 262 262
269 271 279 273 301 323 326 320 307 298 298 297 294 288 286 285 287 274 276 280 286 270 275 289 297 297 312 318 306 300 292 277 284 286 284 301 305 296 278 264 255 261 262 256
268 288 290 295 302 302 297 301 301 297 293 291 286 278 277 274 276 277 274 278 278 267 273 278 282 292 309 320 309 304 306 305 292 287 282 274 274 305 304 269 270 270 266 261
294 318 318 308 305 305 301 303 302 295 289 287 289 285 277 272 270 270 272 273 271 264 268 267 270 283 285 287 294 294 296 299 302 299 290 282 276 273 293 300 279 270 270 268
303 311 299 297 301 306 298 294 291 286 291 295 300 289 276 267 268 267 268 277 269 260 265 265 261 266 263 269 285 287 291 297 298 282 279 275 271 268 263 273 286 283 267 258
294 302 299 305 304 302 298 290 283 282 292 297 298 290 280 268 270 273 278 282 276 270 265 260 261 265 258 262 268 273 279 278 276 277 281 278 277 277 273 272 274 276 276 266
286 297 305 301 294 293 289 282 280 280 285 287 284 279 274 274 277 281 284 278 272 273 272 261 261 261 258 267 271 267 265 279 285 278 271 275 278 278 279 277 274 270 264 261
273 282 287 287 289 286 286 289 286 285 285 283 284 281 274 271 273 275 278 282 280 278 275 265 275 290 286 275 276 274 268 268 280 284 279 276 275 275 276 276 278 277 272 266
255 270 289 293 299 305 305 301 297 294 292 294 296 286 273 270 271 276 285 293 291 293 291 292 290 294 280 272 270 272 274 273 275 279 288 289 289 285 284 283 282 282 287 285
265 284 298 301 306 303 302 305 305 301 299 300 297 291 284 281 283 287 292 291 284 279 286 306 309 296 281 275 291 273 276 280 284 288 287 291 291 289 288 285 286 288 290 288
296 313 311 311 316 312 306 305 300 292 290 293 292 290 289 290 290 285 282 275 273 283 291 295 290 279 280 272 286 275 273 275 279 283 285 285 288 289 286 283 284 286 289 291
291 302 304 307 312 314 311 305 298 295 295 284 275 277 279 283 288 288 284 284 293 311 307 301 297 296 298 297 287 277 273 275 275 278 282 286 288 287 288 288 288 290 292 293
294 303 305 306 307 309 310 307 304 301 298 292 285 284 284 286 289 286 279 278 296 311 316 305 306 305 311 313 289 283 282 285 284 286 285 285 289 289 287 290 287 286 287 288
294 297 299 302 305 309 313 312 309 305 297 295 293 286 278 275 271 271 282 299 313 306 311 305 311 315 312 305 283 278 283 287 290 290 293 294 292 292 289 287 288 287 288 287
293 296 298 299 301 302 306 310 311 305 298 295 287 288 292 289 289 284 276 279 295 299 298 294 302 310 311 294 281 278 277 279 282 283 286 290 289 290 291 288 284 284 282 284
287 288 292 295 292 290 295 303 306 303 300 298 302 312 310 297 290 298 294 273 277 299 302 293 297 305 304 290 286 285 286 285 288 287 282 287 288 287 286 288 287 283 278 276
283 284 286 287 290 294 296 292 286 287 287 291 305 314 315 319 304 297 299 288 275 290 301 298 294 296 295 293 292 291 288 287 284 283 285 285 287 288 285 283 285 282 278 275
274 279 281 284 286 296 303 300 292 288 286 288 296 301 302 304 306 306 304 293 284 282 295 300 298 295 296 299 296 291 287 287 287 287 286 287 290 291 288 285 282 280 280 278